#timestamp,LO_Frequency,Hit,StdDev 
1681621215.7,286046998.4,N
1681621235.6,286047001.2,N
1681621255.4,286046999.0,N
1681621275.2,286046996.5,N
1681621295.1,286046999.4,N
1681621296.0,286046999.4,N
1681621315.8,286046996.8,N
1681621335.7,286046998.9,N
1681621355.5,286046998.6,N
1681621375.3,286046998.4,N
1681621395.2,286046999.0,N
1681621415.0,286046998.3,N
1681621415.9,286046998.3,N
1681621435.8,286047000.5,N
1681621455.6,286047001.0,N
1681621475.4,286047000.7,N
1681621495.3,286047000.8,N
1681621515.1,286047000.7,N
1681621535.8,286047002.4,N
1681621555.7,286047000.7,N
1681621575.5,286047000.6,N
1681621595.4,286046998.1,N
1681621615.2,286047000.0,N
1681621635.0,286047000.5,N
1681621635.9,286047000.5,N
1681621655.8,286047000.7,N
1681621675.6,286047002.5,N
1681621695.4,286047001.1,N
1681621715.3,286047000.6,N
1681621735.1,286047000.6,N
1681621755.9,286047000.6,N
1681621775.7,286047001.1,N
1681621795.5,286046998.2,N
1681621815.4,286047000.7,N
1681621835.2,286047000.6,N
1681621855.0,286047000.6,N
1681621856.0,286047000.6,N
1681621875.8,286047001.1,N
1681621895.6,286046998.5,N
1681621915.5,286047000.0,N
1681621935.3,286047000.9,N
1681621955.1,286047001.2,N
1681621975.9,286047001.2,N
1681621995.7,286047000.2,N
1681622015.5,286047000.3,N
1681622035.4,286046998.2,N
1681622055.2,286047000.5,N
1681622075.1,286047001.0,N
1681622076.0,286047001.0,N
1681622095.8,286046999.8,N
1681622115.6,286046998.3,N
1681622135.5,286046999.0,N
1681622155.3,286046999.3,N
1681622175.1,286046998.3,N
1681622195.9,286046999.0,N
1681622215.7,286046998.6,N
1681622235.6,286046998.2,N
1681622255.4,286046999.0,N
1681622275.2,286046998.3,N
1681622295.1,286047000.7,N
1681622296.0,286047000.7,N
1681622315.8,286047000.9,N
1681622335.7,286046998.1,N
1681622355.5,286047000.9,N
1681622375.3,286047000.5,N
1681622395.2,286047000.7,N
1681622415.0,286046998.2,N
1681622415.9,286046998.2,N
1681622435.7,286047001.1,N
1681622455.6,286047000.8,N
1681622475.4,286047000.4,N
1681622495.3,286047000.3,N
1681622515.1,286047000.1,N
1681622516.0,286047000.1,N
1681622535.8,286047000.3,N
1681622555.7,286047000.6,N
1681622575.5,286046998.5,N
1681622595.3,286046998.2,N
1681622615.2,286046999.4,N
1681622635.0,286046996.8,Y
1681622635.9,286046996.8,P
1681622655.8,286047000.7,N
1681622675.6,286047000.9,N
1681622695.4,286046999.1,N
1681622715.3,286046998.2,N
1681622735.1,286047000.3,N
1681622755.8,286047000.5,N
1681622775.7,286046999.9,N
1681622795.5,286047002.7,N
1681622815.4,286047002.8,N
1681622835.2,286047000.6,N
1681622855.0,286046999.0,N
1681622855.9,286046999.0,N
1681622875.8,286046999.1,N
1681622895.6,286047000.6,N
1681622915.4,286046998.2,N
1681622935.3,286046998.6,N
1681622955.1,286046998.6,N
1681622975.9,286047000.7,N
1681622995.7,286046998.3,N
1681623015.5,286046999.3,N
1681623035.4,286046999.3,N
1681623055.2,286046996.8,N
1681623075.0,286046996.7,N
1681623075.9,286046996.7,N
1681623095.8,286046997.8,N
1681623115.6,286046997.7,N
1681623135.5,286046997.9,N
1681623155.3,286046995.3,N
1681623175.1,286046994.9,N
1681623195.9,286046994.9,N
1681623215.7,286046995.8,N
1681623235.5,286046995.1,N
1681623255.4,286046993.6,Y
1681623275.2,286046998.0,P
1681623295.1,286046994.9,P
1681623296.0,286046994.9,P
1681623315.8,286046995.6,N
1681623335.6,286046994.9,Y
1681623355.5,286046998.8,P
1681623375.3,286046998.1,N
1681623395.2,286047000.5,N
1681623415.9,286047000.2,N
1681623435.7,286047000.0,N
1681623455.6,286047001.1,N
1681623475.4,286046998.9,N
1681623495.2,286047001.1,N
1681623515.1,286046998.6,N
1681623516.0,286046998.6,N
1681623535.8,286046996.9,N
1681623555.7,286046999.3,N
1681623575.5,286046999.5,N
1681623595.3,286046999.6,N
1681623615.2,286046998.6,N
1681623635.9,286046998.8,N
1681623655.7,286046998.2,N
1681623675.6,286046999.0,N
1681623695.4,286046998.1,N
1681623715.2,286046998.8,N
1681623735.1,286046999.4,N
1681623736.0,286046999.4,N
1681623755.8,286046996.9,N
1681623775.7,286046996.5,Y
1681623795.5,286046998.7,P
1681623815.3,286046998.9,P
1681623835.2,286046998.8,P
1681623855.0,286046998.8,Y
1681623855.9,286046998.8,P
1681623875.8,286046999.9,P
1681623895.6,286046999.7,N
1681623915.4,286047002.8,Y
1681623935.3,286047002.6,P
1681623955.1,286047002.3,N
1681623975.8,286046999.9,N
1681623995.7,286046998.1,N
1681624015.5,286047000.5,N
1681624035.4,286046998.6,N
1681624055.2,286046999.0,N
1681624075.0,286046996.5,N
1681624075.9,286046996.5,N
1681624095.8,286046999.3,N
1681624115.6,286046999.3,N
1681624135.4,286046999.5,N
1681624155.3,286046996.8,N
1681624175.1,286046996.6,N
1681624195.9,286046996.7,N
1681624215.7,286046996.8,N
1681624235.5,286046997.0,N
1681624255.4,286046999.6,N
1681624275.2,286046999.3,N
1681624295.0,286046999.3,N
1681624295.9,286046999.3,N
1681624315.8,286046996.9,N
1681624335.6,286046997.0,N
1681624355.5,286046997.1,N
1681624375.3,286046997.0,N
1681624395.1,286046996.5,N
1681624415.9,286046996.6,N
1681624435.7,286046996.5,N
1681624455.5,286046999.1,N
1681624475.4,286046997.1,N
1681624495.2,286046997.6,N
1681624515.1,286046997.7,N
1681624516.0,286046997.7,N
1681624535.8,286046997.8,N
1681624555.6,286046995.3,Y
1681624575.5,286046998.7,P
1681624595.3,286046999.4,N
1681624615.1,286046996.6,P
1681624635.9,286046997.2,N
1681624655.7,286046996.8,Y
1681624675.6,286047000.9,P
1681624695.4,286047000.2,N
1681624715.2,286047000.1,N
1681624735.1,286046999.9,N
1681624736.0,286046999.9,N
1681624755.8,286046998.9,N
1681624775.7,286046998.2,N
1681624795.5,286047000.6,N
